Location: Sternwarte ZA, Rosenfeld-Brittheim
(48.2889°N, 8.6789°E)
Time: 23:54:43
(UTC+02:00)

ISS - Visible Passes

Search period start: 18 October 2019 00:00
Search period end: 27 October 2019 23:00
Orbit: 411 x 421 km, 51.6° (Epoch: 19 October)

Date Brightness Start Highest point End Pass type
(mag) Time Alt. Az. Time Alt. Az. Time Alt. Az.
24 Oct -0.8 06:49:48 10° S 06:51:37 14° SE 06:53:28 10° ESE visible
26 Oct -2.0 06:47:49 10° SSW 06:50:50 30° SE 06:53:50 10° E visible
27 Oct -1.4 05:00:51 15° S 05:02:22 20° SE 05:04:55 10° E visible
